Time,TemperatureF,DewpointF,PressureIn,WindDirection,WindDirectionDegrees,WindSpeedMPH,WindSpeedGustMPH,Humidity,HourlyPrecipIn,Conditions,Clouds,dailyrainin,SoftwareType,DateUTC
2013-04-22 00:01:00,52.7,40.4,30.24,NNE,23,0.7,4.7,63,0.00,,,0.00,WUHU216HW,2013-04-22 04:01:00,
2013-04-22 00:06:00,52.6,40.7,30.24,ENE,68,2.5,4.7,64,0.00,,,0.00,WUHU216HW,2013-04-22 04:06:00,
2013-04-22 00:11:00,52.4,40.5,30.24,NE,45,1.6,3.6,64,0.00,,,0.00,WUHU216HW,2013-04-22 04:11:00,
2013-04-22 00:16:00,52.2,40.3,30.24,ENE,68,1.1,3.4,64,0.00,,,0.00,WUHU216HW,2013-04-22 04:16:00,
2013-04-22 00:21:00,52.2,40.3,30.23,ENE,68,2.0,3.4,64,0.00,,,0.00,WUHU216HW,2013-04-22 04:21:00,
2013-04-22 00:26:00,52.0,40.1,30.23,ENE,68,1.8,3.8,64,0.00,,,0.00,WUHU216HW,2013-04-22 04:26:00,
2013-04-22 00:31:00,52.0,40.1,30.24,ENE,68,1.1,3.8,64,0.00,,,0.00,WUHU216HW,2013-04-22 04:31:00,
2013-04-22 00:36:00,51.8,40.4,30.24,ENE,68,1.1,2.9,65,0.00,,,0.00,WUHU216HW,2013-04-22 04:36:00,
2013-04-22 00:41:00,51.7,40.2,30.24,NE,45,0.9,2.9,65,0.00,,,0.00,WUHU216HW,2013-04-22 04:41:00,
2013-04-22 00:46:00,51.5,40.1,30.23,NE,45,0.2,2.5,65,0.00,,,0.00,WUHU216HW,2013-04-22 04:46:00,
2013-04-22 00:51:00,51.3,39.9,30.23,ENE,68,0.4,1.8,65,0.00,,,0.00,WUHU216HW,2013-04-22 04:51:00,
2013-04-22 00:56:00,50.9,39.5,30.23,ENE,68,0.0,1.6,65,0.00,,,0.00,WUHU216HW,2013-04-22 04:56:00,
2013-04-22 01:01:00,50.6,39.3,30.23,ENE,68,0.0,0.4,65,0.00,,,0.00,WUHU216HW,2013-04-22 05:01:00,
2013-04-22 01:06:00,50.0,38.7,30.23,ENE,68,0.0,0.4,65,0.00,,,0.00,WUHU216HW,2013-04-22 05:06:00,
2013-04-22 01:11:00,49.7,38.8,30.23,ENE,68,0.2,0.4,66,0.00,,,0.00,WUHU216HW,2013-04-22 05:11:00,
2013-04-22 01:16:00,49.3,38.8,30.23,ENE,68,0.0,1.3,67,0.00,,,0.00,WUHU216HW,2013-04-22 05:16:00,
2013-04-22 01:21:00,49.0,38.4,30.23,ENE,68,0.0,1.3,67,0.00,,,0.00,WUHU216HW,2013-04-22 05:21:00,
2013-04-22 01:26:00,48.6,38.1,30.23,ENE,68,0.0,0.7,67,0.00,,,0.00,WUHU216HW,2013-04-22 05:26:00,
2013-04-22 01:31:00,48.2,38.2,30.23,ENE,68,0.0,0.0,68,0.00,,,0.00,WUHU216HW,2013-04-22 05:31:00,
2013-04-22 01:36:00,47.9,37.8,30.22,ENE,68,0.0,0.0,68,0.00,,,0.00,WUHU216HW,2013-04-22 05:36:00,
2013-04-22 01:41:00,47.5,37.4,30.22,ENE,68,0.0,0.0,68,0.00,,,0.00,WUHU216HW,2013-04-22 05:41:00,
2013-04-22 01:46:00,47.3,37.7,30.22,ENE,68,0.0,0.4,69,0.00,,,0.00,WUHU216HW,2013-04-22 05:46:00,
2013-04-22 01:51:00,47.2,37.5,30.22,ENE,68,0.2,0.4,69,0.00,,,0.00,WUHU216HW,2013-04-22 05:51:00,
2013-04-22 01:56:00,46.8,37.6,30.22,ENE,68,0.0,0.4,70,0.00,,,0.00,WUHU216HW,2013-04-22 05:56:00,
2013-04-22 02:01:00,46.6,37.5,30.22,ENE,68,0.0,0.4,70,0.00,,,0.00,WUHU216HW,2013-04-22 06:01:00,
2013-04-22 02:06:00,46.4,37.3,30.22,ENE,68,0.0,0.0,70,0.00,,,0.00,WUHU216HW,2013-04-22 06:06:00,
2013-04-22 02:11:00,46.3,37.5,30.22,ENE,68,0.0,0.4,71,0.00,,,0.00,WUHU216HW,2013-04-22 06:11:00,
2013-04-22 02:16:00,46.1,37.6,30.22,ENE,68,0.0,0.4,72,0.00,,,0.00,WUHU216HW,2013-04-22 06:16:00,
2013-04-22 02:21:00,46.1,37.6,30.23,ENE,68,0.0,0.4,72,0.00,,,0.00,WUHU216HW,2013-04-22 06:21:00,
2013-04-22 02:26:00,46.1,37.9,30.22,ENE,68,0.0,0.7,73,0.00,,,0.00,WUHU216HW,2013-04-22 06:26:00,
2013-04-22 02:31:00,46.1,37.9,30.22,ENE,68,0.0,0.7,73,0.00,,,0.00,WUHU216HW,2013-04-22 06:31:00,
2013-04-22 02:36:00,45.9,37.5,30.22,ENE,68,0.2,0.2,72,0.00,,,0.00,WUHU216HW,2013-04-22 06:36:00,
2013-04-22 02:41:00,45.7,38.3,30.22,East,90,1.1,1.8,75,0.00,,,0.00,WUHU216HW,2013-04-22 06:41:00,
2013-04-22 02:46:00,45.9,38.4,30.22,ENE,68,1.1,1.8,75,0.00,,,0.00,WUHU216HW,2013-04-22 06:46:00,
2013-04-22 02:51:00,45.9,38.4,30.22,ENE,68,0.2,1.6,75,0.00,,,0.00,WUHU216HW,2013-04-22 06:51:00,
2013-04-22 02:56:00,45.9,38.4,30.22,NE,45,0.0,2.2,75,0.00,,,0.00,WUHU216HW,2013-04-22 06:56:00,
2013-04-22 03:01:00,45.7,37.9,30.22,NE,45,0.0,2.2,74,0.00,,,0.00,WUHU216HW,2013-04-22 07:01:00,
2013-04-22 03:06:00,45.7,38.3,30.22,NE,45,1.6,1.6,75,0.00,,,0.00,WUHU216HW,2013-04-22 07:06:00,
2013-04-22 03:11:00,45.5,38.4,30.22,NE,45,0.4,1.8,76,0.00,,,0.00,WUHU216HW,2013-04-22 07:11:00,
2013-04-22 03:16:00,45.9,39.4,30.22,NE,45,1.8,5.4,78,0.00,,,0.00,WUHU216HW,2013-04-22 07:16:00,
2013-04-22 03:21:00,45.9,39.2,30.21,ENE,68,0.0,5.4,77,0.00,,,0.00,WUHU216HW,2013-04-22 07:21:00,
2013-04-22 03:26:00,45.7,38.6,30.22,ENE,68,1.1,1.8,76,0.00,,,0.00,WUHU216HW,2013-04-22 07:26:00,
2013-04-22 03:31:00,45.5,39.1,30.21,NNE,23,3.1,3.1,78,0.00,,,0.00,WUHU216HW,2013-04-22 07:31:00,
2013-04-22 03:36:00,45.7,39.0,30.21,NE,45,1.8,3.1,77,0.00,,,0.00,WUHU216HW,2013-04-22 07:36:00,
2013-04-22 03:41:00,45.7,39.0,30.21,ENE,68,0.7,3.1,77,0.00,,,0.00,WUHU216HW,2013-04-22 07:41:00,
2013-04-22 03:46:00,45.5,38.8,30.21,East,90,1.3,1.8,77,0.00,,,0.00,WUHU216HW,2013-04-22 07:46:00,
2013-04-22 03:51:00,45.4,38.6,30.21,NE,45,1.1,1.8,77,0.00,,,0.00,WUHU216HW,2013-04-22 07:51:00,
2013-04-22 03:56:00,45.0,38.5,30.21,ENE,68,1.8,1.8,78,0.00,,,0.00,WUHU216HW,2013-04-22 07:56:00,
2013-04-22 04:01:00,45.0,38.9,30.21,ENE,68,1.1,2.5,79,0.00,,,0.00,WUHU216HW,2013-04-22 08:01:00,
2013-04-22 04:06:00,45.0,38.5,30.21,ENE,68,3.6,3.6,78,0.00,,,0.00,WUHU216HW,2013-04-22 08:06:00,
2013-04-22 04:11:00,45.2,38.7,30.21,ENE,68,2.2,3.8,78,0.00,,,0.00,WUHU216HW,2013-04-22 08:11:00,
2013-04-22 04:16:00,45.4,38.9,30.21,NE,45,2.5,3.8,78,0.00,,,0.00,WUHU216HW,2013-04-22 08:16:00,
2013-04-22 04:21:00,45.2,38.7,30.21,ENE,68,3.1,3.1,78,0.00,,,0.00,WUHU216HW,2013-04-22 08:21:00,
2013-04-22 04:26:00,45.4,38.9,30.21,NE,45,1.1,4.7,78,0.00,,,0.00,WUHU216HW,2013-04-22 08:26:00,
2013-04-22 04:31:00,45.4,38.9,30.21,ENE,68,1.1,4.7,78,0.00,,,0.00,WUHU216HW,2013-04-22 08:31:00,
2013-04-22 04:36:00,45.4,38.9,30.21,NNE,23,2.7,4.3,78,0.00,,,0.00,WUHU216HW,2013-04-22 08:36:00,
2013-04-22 04:41:00,45.4,38.6,30.21,ENE,68,1.8,4.3,77,0.00,,,0.00,WUHU216HW,2013-04-22 08:41:00,
2013-04-22 04:46:00,45.5,38.8,30.21,NE,45,2.9,4.7,77,0.00,,,0.00,WUHU216HW,2013-04-22 08:46:00,
2013-04-22 04:51:00,45.4,38.6,30.20,NE,45,1.1,4.7,77,0.00,,,0.00,WUHU216HW,2013-04-22 08:51:00,
2013-04-22 04:56:00,45.4,38.9,30.21,NE,45,2.7,4.3,78,0.00,,,0.00,WUHU216HW,2013-04-22 08:56:00,
2013-04-22 05:01:00,45.2,38.7,30.21,NE,45,1.8,4.3,78,0.00,,,0.00,WUHU216HW,2013-04-22 09:01:00,
2013-04-22 05:06:00,45.0,38.5,30.21,NE,45,2.0,3.8,78,0.00,,,0.00,WUHU216HW,2013-04-22 09:06:00,
2013-04-22 05:11:00,45.0,38.9,30.21,NE,45,2.2,4.7,79,0.00,,,0.00,WUHU216HW,2013-04-22 09:11:00,
2013-04-22 05:16:00,45.0,38.9,30.21,NE,45,2.5,4.7,79,0.00,,,0.00,WUHU216HW,2013-04-22 09:16:00,
2013-04-22 05:21:00,45.0,38.9,30.21,NE,45,4.0,4.0,79,0.00,,,0.00,WUHU216HW,2013-04-22 09:21:00,
2013-04-22 05:26:00,44.8,38.7,30.21,NE,45,2.9,4.9,79,0.00,,,0.00,WUHU216HW,2013-04-22 09:26:00,
2013-04-22 05:31:00,44.8,38.7,30.21,NE,45,2.5,4.9,79,0.00,,,0.00,WUHU216HW,2013-04-22 09:31:00,
2013-04-22 05:36:00,44.6,38.5,30.21,NE,45,1.8,5.8,79,0.00,,,0.00,WUHU216HW,2013-04-22 09:36:00,
2013-04-22 05:41:00,44.8,38.7,30.22,North,0,1.8,5.8,79,0.00,,,0.00,WUHU216HW,2013-04-22 09:41:00,
2013-04-22 05:46:00,44.8,38.7,30.22,NE,45,6.0,6.3,79,0.00,,,0.00,WUHU216HW,2013-04-22 09:46:00,
2013-04-22 05:51:00,44.8,38.7,30.22,ENE,68,1.8,6.9,79,0.00,,,0.00,WUHU216HW,2013-04-22 09:51:00,
2013-04-22 05:56:00,45.0,38.5,30.22,East,90,6.9,7.4,78,0.00,,,0.00,WUHU216HW,2013-04-22 09:56:00,
2013-04-22 06:01:00,45.0,38.5,30.22,ENE,68,2.5,8.1,78,0.00,,,0.00,WUHU216HW,2013-04-22 10:01:00,
2013-04-22 06:06:00,45.0,38.5,30.22,ENE,68,4.0,8.1,78,0.00,,,0.00,WUHU216HW,2013-04-22 10:06:00,
2013-04-22 06:11:00,45.0,38.5,30.23,East,90,4.5,8.5,78,0.00,,,0.00,WUHU216HW,2013-04-22 10:11:00,
2013-04-22 06:16:00,45.0,38.3,30.23,ENE,68,5.1,8.5,77,0.00,,,0.00,WUHU216HW,2013-04-22 10:16:00,
2013-04-22 06:21:00,45.0,38.3,30.23,ENE,68,4.7,8.3,77,0.00,,,0.00,WUHU216HW,2013-04-22 10:21:00,
2013-04-22 06:26:00,45.0,38.3,30.24,NE,45,4.7,7.6,77,0.00,,,0.00,WUHU216HW,2013-04-22 10:26:00,
2013-04-22 06:31:00,45.0,38.3,30.24,ENE,68,4.5,6.5,77,0.00,,,0.00,WUHU216HW,2013-04-22 10:31:00,
2013-04-22 06:36:00,45.0,38.3,30.24,ENE,68,4.5,7.2,77,0.00,,,0.00,WUHU216HW,2013-04-22 10:36:00,
2013-04-22 06:41:00,45.0,38.3,30.24,NE,45,4.0,7.2,77,0.00,,,0.00,WUHU216HW,2013-04-22 10:41:00,
2013-04-22 06:46:00,44.8,38.1,30.24,NNE,23,3.1,6.7,77,0.00,,,0.00,WUHU216HW,2013-04-22 10:46:00,
2013-04-22 06:51:00,44.8,38.1,30.24,NE,45,2.9,6.7,77,0.00,,,0.00,WUHU216HW,2013-04-22 10:51:00,
2013-04-22 06:56:00,44.8,38.1,30.24,ENE,68,5.8,6.9,77,0.00,,,0.00,WUHU216HW,2013-04-22 10:56:00,
2013-04-22 07:01:00,45.0,38.3,30.24,North,0,4.3,6.9,77,0.00,,,0.00,WUHU216HW,2013-04-22 11:01:00,
2013-04-22 07:06:00,45.0,38.3,30.24,ENE,68,5.1,11.6,77,0.00,,,0.00,WUHU216HW,2013-04-22 11:06:00,
2013-04-22 07:11:00,45.0,38.3,30.24,NNE,23,4.7,11.6,77,0.00,,,0.00,WUHU216HW,2013-04-22 11:11:00,
2013-04-22 07:16:00,45.0,38.3,30.25,NE,45,6.5,7.8,77,0.00,,,0.00,WUHU216HW,2013-04-22 11:16:00,
2013-04-22 07:21:00,45.2,38.4,30.25,NNE,23,7.2,8.1,77,0.00,,,0.00,WUHU216HW,2013-04-22 11:21:00,
2013-04-22 07:26:00,45.2,38.4,30.25,NE,45,4.7,8.9,77,0.00,,,0.00,WUHU216HW,2013-04-22 11:26:00,
2013-04-22 07:31:00,45.2,38.4,30.25,NE,45,4.7,8.9,77,0.00,,,0.00,WUHU216HW,2013-04-22 11:31:00,
2013-04-22 07:36:00,45.4,38.6,30.25,NNE,23,3.6,8.9,77,0.00,,,0.00,WUHU216HW,2013-04-22 11:36:00,
2013-04-22 07:41:00,45.4,38.6,30.26,East,90,4.5,8.9,77,0.00,,,0.00,WUHU216HW,2013-04-22 11:41:00,
2013-04-22 07:46:00,45.4,38.3,30.26,NE,45,4.3,8.3,76,0.00,,,0.00,WUHU216HW,2013-04-22 11:46:00,
2013-04-22 07:51:00,45.5,38.8,30.26,ENE,68,4.0,6.5,77,0.00,,,0.00,WUHU216HW,2013-04-22 11:51:00,
2013-04-22 07:56:00,45.7,38.6,30.26,NNE,23,5.4,7.4,76,0.00,,,0.00,WUHU216HW,2013-04-22 11:56:00,
2013-04-22 08:01:00,45.7,38.3,30.26,ENE,68,6.0,9.8,75,0.00,,,0.00,WUHU216HW,2013-04-22 12:01:00,
2013-04-22 08:06:00,45.7,38.3,30.26,NE,45,6.7,9.8,75,0.00,,,0.00,WUHU216HW,2013-04-22 12:06:00,
2013-04-22 08:11:00,45.9,38.1,30.26,NNW,338,6.5,8.1,74,0.00,,,0.00,WUHU216HW,2013-04-22 12:11:00,
2013-04-22 08:16:00,46.1,38.3,30.26,ENE,68,4.7,8.1,74,0.00,,,0.00,WUHU216HW,2013-04-22 12:16:00,
2013-04-22 08:21:00,46.3,38.1,30.26,East,90,2.5,8.9,73,0.00,,,0.00,WUHU216HW,2013-04-22 12:21:00,
2013-04-22 08:26:00,46.4,38.3,30.26,NE,45,2.2,8.9,73,0.00,,,0.00,WUHU216HW,2013-04-22 12:26:00,
2013-04-22 08:31:00,46.4,38.0,30.26,NE,45,3.1,9.6,72,0.00,,,0.00,WUHU216HW,2013-04-22 12:31:00,
2013-04-22 08:36:00,46.4,37.6,30.26,East,90,8.7,9.6,71,0.00,,,0.00,WUHU216HW,2013-04-22 12:36:00,
2013-04-22 08:41:00,46.4,37.3,30.26,ENE,68,3.6,11.6,70,0.00,,,0.00,WUHU216HW,2013-04-22 12:41:00,
2013-04-22 08:46:00,46.6,37.5,30.26,NE,45,6.0,11.6,70,0.00,,,0.00,WUHU216HW,2013-04-22 12:46:00,
2013-04-22 08:51:00,46.8,37.2,30.26,NNE,23,2.7,9.8,69,0.00,,,0.00,WUHU216HW,2013-04-22 12:51:00,
2013-04-22 08:56:00,47.0,37.0,30.26,East,90,8.3,9.8,68,0.00,,,0.00,WUHU216HW,2013-04-22 12:56:00,
2013-04-22 09:01:00,47.2,37.2,30.26,NE,45,4.7,10.3,68,0.00,,,0.00,WUHU216HW,2013-04-22 13:01:00,
2013-04-22 09:06:00,47.3,36.9,30.26,ENE,68,5.1,11.0,67,0.00,,,0.00,WUHU216HW,2013-04-22 13:06:00,
2013-04-22 09:11:00,47.5,37.1,30.26,NE,45,8.9,11.6,67,0.00,,,0.00,WUHU216HW,2013-04-22 13:11:00,
2013-04-22 09:16:00,47.9,37.8,30.26,East,90,4.0,11.6,68,0.00,,,0.00,WUHU216HW,2013-04-22 13:16:00,
2013-04-22 09:21:00,48.2,37.4,30.26,NE,45,14.1,14.1,66,0.00,,,0.00,WUHU216HW,2013-04-22 13:21:00,
2013-04-22 09:26:00,48.6,37.7,30.26,NNE,23,3.4,14.1,66,0.00,,,0.00,WUHU216HW,2013-04-22 13:26:00,
2013-04-22 09:31:00,49.1,37.8,30.25,ESE,113,2.2,14.1,65,0.00,,,0.00,WUHU216HW,2013-04-22 13:31:00,
2013-04-22 09:36:00,49.9,38.2,30.26,ENE,68,6.7,10.3,64,0.00,,,0.00,WUHU216HW,2013-04-22 13:36:00,
2013-04-22 09:41:00,50.0,38.4,30.25,East,90,4.3,11.2,64,0.00,,,0.00,WUHU216HW,2013-04-22 13:41:00,
2013-04-22 09:46:00,50.2,38.1,30.25,NE,45,2.5,11.2,63,0.00,,,0.00,WUHU216HW,2013-04-22 13:46:00,
2013-04-22 09:51:00,50.8,38.6,30.26,ENE,68,4.5,11.2,63,0.00,,,0.00,WUHU216HW,2013-04-22 13:51:00,
2013-04-22 09:56:00,50.8,38.2,30.26,North,0,8.7,12.8,62,0.00,,,0.00,WUHU216HW,2013-04-22 13:56:00,
2013-04-22 10:01:00,50.9,38.3,30.25,ENE,68,7.6,12.8,62,0.00,,,0.00,WUHU216HW,2013-04-22 14:01:00,
2013-04-22 10:06:00,51.3,37.9,30.25,NE,45,5.8,11.0,60,0.00,,,0.00,WUHU216HW,2013-04-22 14:06:00,
2013-04-22 10:11:00,51.7,38.6,30.25,NE,45,5.4,11.0,61,0.00,,,0.00,WUHU216HW,2013-04-22 14:11:00,
2013-04-22 10:16:00,52.2,38.3,30.25,ESE,113,7.6,8.9,59,0.00,,,0.00,WUHU216HW,2013-04-22 14:16:00,
2013-04-22 10:21:00,51.8,38.3,30.25,ESE,113,4.0,11.4,60,0.00,,,0.00,WUHU216HW,2013-04-22 14:21:00,
2013-04-22 10:26:00,52.2,37.4,30.25,NE,45,9.4,11.4,57,0.00,,,0.00,WUHU216HW,2013-04-22 14:26:00,
2013-04-22 10:31:00,52.0,37.2,30.25,NE,45,10.1,10.1,57,0.00,,,0.00,WUHU216HW,2013-04-22 14:31:00,
2013-04-22 10:36:00,51.7,37.3,30.25,NNE,23,3.8,11.4,58,0.00,,,0.00,WUHU216HW,2013-04-22 14:36:00,
2013-04-22 10:41:00,52.2,37.4,30.24,East,90,6.0,11.4,57,0.00,,,0.00,WUHU216HW,2013-04-22 14:41:00,
2013-04-22 10:46:00,52.4,37.1,30.24,NNE,23,9.6,9.6,56,0.00,,,0.00,WUHU216HW,2013-04-22 14:46:00,
2013-04-22 10:51:00,52.9,37.6,30.24,NE,45,4.3,10.5,56,0.00,,,0.00,WUHU216HW,2013-04-22 14:51:00,
2013-04-22 10:56:00,53.5,37.2,30.24,NNE,23,2.0,10.5,54,0.00,,,0.00,WUHU216HW,2013-04-22 14:56:00,
2013-04-22 11:01:00,53.5,36.3,30.24,NE,45,8.3,11.2,52,0.00,,,0.00,WUHU216HW,2013-04-22 15:01:00,
2013-04-22 11:06:00,52.9,35.3,30.24,NE,45,4.0,11.4,51,0.00,,,0.00,WUHU216HW,2013-04-22 15:06:00,
2013-04-22 11:11:00,53.1,35.9,30.24,NNE,23,6.3,12.1,52,0.00,,,0.00,WUHU216HW,2013-04-22 15:11:00,
2013-04-22 11:16:00,53.6,35.9,30.24,NE,45,6.5,12.1,51,0.00,,,0.00,WUHU216HW,2013-04-22 15:16:00,
2013-04-22 11:21:00,54.2,35.9,30.24,East,90,6.0,9.8,50,0.00,,,0.00,WUHU216HW,2013-04-22 15:21:00,
2013-04-22 11:26:00,54.4,36.1,30.23,NE,45,8.7,9.8,50,0.00,,,0.00,WUHU216HW,2013-04-22 15:26:00,
2013-04-22 11:31:00,54.4,36.1,30.23,ENE,68,4.0,9.8,50,0.00,,,0.00,WUHU216HW,2013-04-22 15:31:00,
2013-04-22 11:36:00,55.1,36.7,30.23,East,90,6.3,9.8,50,0.00,,,0.00,WUHU216HW,2013-04-22 15:36:00,
2013-04-22 11:41:00,54.7,35.9,30.23,East,90,7.4,12.8,49,0.00,,,0.00,WUHU216HW,2013-04-22 15:41:00,
2013-04-22 11:46:00,54.7,36.5,30.23,NE,45,9.2,12.8,50,0.00,,,0.00,WUHU216HW,2013-04-22 15:46:00,
2013-04-22 11:51:00,54.9,36.0,30.23,NE,45,4.7,11.6,49,0.00,,,0.00,WUHU216HW,2013-04-22 15:51:00,
2013-04-22 11:56:00,54.9,36.0,30.23,NE,45,6.7,13.4,49,0.00,,,0.00,WUHU216HW,2013-04-22 15:56:00,
2013-04-22 12:01:00,55.4,37.1,30.22,NNE,23,5.1,13.4,50,0.00,,,0.00,WUHU216HW,2013-04-22 16:01:00,
2013-04-22 12:06:00,56.7,37.8,30.22,ENE,68,4.0,8.5,49,0.00,,,0.00,WUHU216HW,2013-04-22 16:06:00,
2013-04-22 12:11:00,57.1,37.0,30.22,North,0,2.5,9.6,47,0.00,,,0.00,WUHU216HW,2013-04-22 16:11:00,
2013-04-22 12:16:00,56.9,36.8,30.22,NE,45,4.0,9.6,47,0.00,,,0.00,WUHU216HW,2013-04-22 16:16:00,
2013-04-22 12:21:00,56.2,36.6,30.21,ENE,68,5.4,9.4,48,0.00,,,0.00,WUHU216HW,2013-04-22 16:21:00,
2013-04-22 12:26:00,56.2,36.1,30.21,East,90,4.7,9.4,47,0.00,,,0.00,WUHU216HW,2013-04-22 16:26:00,
2013-04-22 12:31:00,56.7,36.1,30.20,ENE,68,8.3,9.8,46,0.00,,,0.00,WUHU216HW,2013-04-22 16:31:00,
2013-04-22 12:36:00,56.5,37.0,30.20,NNE,23,4.7,11.2,48,0.00,,,0.00,WUHU216HW,2013-04-22 16:36:00,
2013-04-22 12:41:00,56.9,36.3,30.20,NNE,23,5.4,11.2,46,0.00,,,0.00,WUHU216HW,2013-04-22 16:41:00,
2013-04-22 12:46:00,56.5,35.9,30.19,ENE,68,7.6,11.4,46,0.00,,,0.00,WUHU216HW,2013-04-22 16:46:00,
2013-04-22 12:51:00,56.7,36.6,30.19,ENE,68,7.4,12.3,47,0.00,,,0.00,WUHU216HW,2013-04-22 16:51:00,
2013-04-22 12:56:00,57.4,37.4,30.19,NE,45,10.3,12.3,47,0.00,,,0.00,WUHU216HW,2013-04-22 16:56:00,
2013-04-22 13:01:00,57.8,37.1,30.18,NE,45,4.0,10.3,46,0.00,,,0.00,WUHU216HW,2013-04-22 17:01:00,
2013-04-22 13:06:00,58.0,36.6,30.18,East,90,8.5,11.0,45,0.00,,,0.00,WUHU216HW,2013-04-22 17:06:00,
2013-04-22 13:11:00,58.0,36.6,30.18,ENE,68,4.9,11.0,45,0.00,,,0.00,WUHU216HW,2013-04-22 17:11:00,
2013-04-22 13:16:00,58.7,37.9,30.18,East,90,3.1,11.0,46,0.00,,,0.00,WUHU216HW,2013-04-22 17:16:00,
2013-04-22 13:21:00,58.5,37.2,30.18,ESE,113,6.7,10.7,45,0.00,,,0.00,WUHU216HW,2013-04-22 17:21:00,
2013-04-22 13:26:00,58.7,37.3,30.17,ENE,68,3.8,10.7,45,0.00,,,0.00,WUHU216HW,2013-04-22 17:26:00,
2013-04-22 13:31:00,59.4,37.4,30.17,NE,45,10.1,10.1,44,0.00,,,0.00,WUHU216HW,2013-04-22 17:31:00,
2013-04-22 13:36:00,59.4,37.4,30.17,ENE,68,7.4,10.1,44,0.00,,,0.00,WUHU216HW,2013-04-22 17:36:00,
2013-04-22 13:41:00,59.4,37.4,30.17,NE,45,4.9,9.6,44,0.00,,,0.00,WUHU216HW,2013-04-22 17:41:00,
2013-04-22 13:46:00,59.4,37.4,30.17,North,0,6.3,9.2,44,0.00,,,0.00,WUHU216HW,2013-04-22 17:46:00,
2013-04-22 13:51:00,59.4,37.4,30.16,NNE,23,9.2,11.4,44,0.00,,,0.00,WUHU216HW,2013-04-22 17:51:00,
2013-04-22 13:56:00,59.8,37.1,30.16,NE,45,5.8,11.4,43,0.00,,,0.00,WUHU216HW,2013-04-22 17:56:00,
2013-04-22 14:01:00,60.1,36.9,30.16,ENE,68,5.1,11.0,42,0.00,,,0.00,WUHU216HW,2013-04-22 18:01:00,
2013-04-22 14:06:00,59.9,37.3,30.15,ENE,68,1.1,11.2,43,0.00,,,0.00,WUHU216HW,2013-04-22 18:06:00,
2013-04-22 14:11:00,59.9,36.7,30.16,ENE,68,2.9,11.4,42,0.00,,,0.00,WUHU216HW,2013-04-22 18:11:00,
2013-04-22 14:16:00,60.5,37.8,30.16,NW,315,0.7,11.4,43,0.00,,,0.00,WUHU216HW,2013-04-22 18:16:00,
2013-04-22 14:21:00,60.5,38.3,30.16,NNE,23,4.0,15.0,44,0.00,,,0.00,WUHU216HW,2013-04-22 18:21:00,
2013-04-22 14:26:00,60.8,38.7,30.16,NE,45,1.8,15.0,44,0.00,,,0.00,WUHU216HW,2013-04-22 18:26:00,
2013-04-22 14:31:00,62.3,38.8,30.16,ENE,68,5.4,7.6,42,0.00,,,0.00,WUHU216HW,2013-04-22 18:31:00,
2013-04-22 14:36:00,61.9,37.4,30.16,ENE,68,3.4,9.8,40,0.00,,,0.00,WUHU216HW,2013-04-22 18:36:00,
2013-04-22 14:41:00,61.2,37.8,30.16,NE,45,3.6,11.0,42,0.00,,,0.00,WUHU216HW,2013-04-22 18:41:00,
2013-04-22 14:46:00,61.9,37.9,30.15,ENE,68,7.6,11.0,41,0.00,,,0.00,WUHU216HW,2013-04-22 18:46:00,
2013-04-22 14:51:00,62.1,37.5,30.15,NNE,23,5.6,8.5,40,0.00,,,0.00,WUHU216HW,2013-04-22 18:51:00,
2013-04-22 14:56:00,61.9,38.5,30.15,ENE,68,4.7,8.5,42,0.00,,,0.00,WUHU216HW,2013-04-22 18:56:00,
2013-04-22 15:01:00,62.3,38.3,30.15,NE,45,1.8,7.6,41,0.00,,,0.00,WUHU216HW,2013-04-22 19:01:00,
2013-04-22 15:06:00,63.0,38.4,30.14,ENE,68,3.6,7.6,40,0.00,,,0.00,WUHU216HW,2013-04-22 19:06:00,
2013-04-22 15:11:00,63.7,39.0,30.14,ESE,113,2.5,6.9,40,0.00,,,0.00,WUHU216HW,2013-04-22 19:11:00,
2013-04-22 15:16:00,63.5,38.1,30.14,NNE,23,4.0,9.2,39,0.00,,,0.00,WUHU216HW,2013-04-22 19:16:00,
2013-04-22 15:21:00,63.0,38.4,30.14,ENE,68,2.9,10.5,40,0.00,,,0.00,WUHU216HW,2013-04-22 19:21:00,
2013-04-22 15:26:00,63.5,38.1,30.14,ENE,68,5.8,10.5,39,0.00,,,0.00,WUHU216HW,2013-04-22 19:26:00,
2013-04-22 15:31:00,63.2,37.7,30.14,ENE,68,6.3,7.8,39,0.00,,,0.00,WUHU216HW,2013-04-22 19:31:00,
2013-04-22 15:36:00,63.0,38.4,30.13,ENE,68,3.6,7.8,40,0.00,,,0.00,WUHU216HW,2013-04-22 19:36:00,
2013-04-22 15:41:00,63.4,38.6,30.13,NNE,23,5.6,7.4,40,0.00,,,0.00,WUHU216HW,2013-04-22 19:41:00,
2013-04-22 15:46:00,63.0,37.6,30.13,ENE,68,8.5,8.5,39,0.00,,,0.00,WUHU216HW,2013-04-22 19:46:00,
2013-04-22 15:51:00,63.4,38.6,30.12,NE,45,7.8,8.5,40,0.00,,,0.00,WUHU216HW,2013-04-22 19:51:00,
2013-04-22 15:56:00,63.4,37.9,30.12,East,90,6.5,11.9,39,0.00,,,0.00,WUHU216HW,2013-04-22 19:56:00,
2013-04-22 16:01:00,63.7,39.5,30.12,ENE,68,4.7,11.9,41,0.00,,,0.00,WUHU216HW,2013-04-22 20:01:00,
2013-04-22 16:06:00,63.7,37.5,30.12,ENE,68,8.7,12.5,38,0.00,,,0.00,WUHU216HW,2013-04-22 20:06:00,
2013-04-22 16:11:00,63.7,38.3,30.11,NE,45,6.7,12.5,39,0.00,,,0.00,WUHU216HW,2013-04-22 20:11:00,
2013-04-22 16:16:00,63.4,37.2,30.11,NNE,23,8.5,9.8,38,0.00,,,0.00,WUHU216HW,2013-04-22 20:16:00,
2013-04-22 16:21:00,63.4,37.9,30.11,ENE,68,5.6,9.8,39,0.00,,,0.00,WUHU216HW,2013-04-22 20:21:00,
2013-04-22 16:26:00,63.4,36.5,30.11,NE,45,11.9,11.9,37,0.00,,,0.00,WUHU216HW,2013-04-22 20:26:00,
2013-04-22 16:31:00,63.0,36.9,30.11,ENE,68,6.3,11.9,38,0.00,,,0.00,WUHU216HW,2013-04-22 20:31:00,
2013-04-22 16:36:00,63.0,37.6,30.11,NE,45,7.2,11.9,39,0.00,,,0.00,WUHU216HW,2013-04-22 20:36:00,
2013-04-22 16:41:00,63.2,37.0,30.11,NE,45,6.3,10.5,38,0.00,,,0.00,WUHU216HW,2013-04-22 20:41:00,
2013-04-22 16:46:00,63.7,37.5,30.11,ENE,68,3.6,9.2,38,0.00,,,0.00,WUHU216HW,2013-04-22 20:46:00,
2013-04-22 16:51:00,64.3,37.3,30.10,East,90,4.0,7.4,37,0.00,,,0.00,WUHU216HW,2013-04-22 20:51:00,
2013-04-22 16:56:00,63.9,37.7,30.10,ESE,113,3.6,9.2,38,0.00,,,0.00,WUHU216HW,2013-04-22 20:56:00,
2013-04-22 17:01:00,64.6,38.4,30.10,East,90,4.3,9.2,38,0.00,,,0.00,WUHU216HW,2013-04-22 21:01:00,
2013-04-22 17:06:00,64.4,36.7,30.10,NE,45,7.6,9.2,36,0.00,,,0.00,WUHU216HW,2013-04-22 21:06:00,
2013-04-22 17:11:00,63.9,37.0,30.09,ENE,68,4.7,9.2,37,0.00,,,0.00,WUHU216HW,2013-04-22 21:11:00,
2013-04-22 17:16:00,63.9,37.0,30.09,ENE,68,6.5,8.5,37,0.00,,,0.00,WUHU216HW,2013-04-22 21:16:00,
2013-04-22 17:21:00,63.9,37.0,30.09,ENE,68,2.9,8.3,37,0.00,,,0.00,WUHU216HW,2013-04-22 21:21:00,
2013-04-22 17:26:00,63.7,36.8,30.09,NE,45,2.9,8.9,37,0.00,,,0.00,WUHU216HW,2013-04-22 21:26:00,
2013-04-22 17:31:00,63.9,37.0,30.09,South,180,2.5,8.9,37,0.00,,,0.00,WUHU216HW,2013-04-22 21:31:00,
2013-04-22 17:36:00,64.1,36.4,30.09,ENE,68,2.7,6.9,36,0.00,,,0.00,WUHU216HW,2013-04-22 21:36:00,
2013-04-22 17:41:00,64.4,36.7,30.09,ENE,68,5.8,6.9,36,0.00,,,0.00,WUHU216HW,2013-04-22 21:41:00,
2013-04-22 17:46:00,64.1,36.4,30.09,NE,45,4.0,6.7,36,0.00,,,0.00,WUHU216HW,2013-04-22 21:46:00,
2013-04-22 17:51:00,64.3,36.5,30.09,NE,45,4.7,7.2,36,0.00,,,0.00,WUHU216HW,2013-04-22 21:51:00,
2013-04-22 17:56:00,64.1,36.4,30.09,North,0,5.4,7.6,36,0.00,,,0.00,WUHU216HW,2013-04-22 21:56:00,
2013-04-22 18:01:00,63.7,35.4,30.09,NE,45,3.8,7.6,35,0.00,,,0.00,WUHU216HW,2013-04-22 22:01:00,
2013-04-22 18:06:00,63.9,36.3,30.09,ENE,68,1.8,6.9,36,0.00,,,0.00,WUHU216HW,2013-04-22 22:06:00,
2013-04-22 18:11:00,64.1,34.9,30.09,NE,45,2.9,5.4,34,0.00,,,0.00,WUHU216HW,2013-04-22 22:11:00,
2013-04-22 18:16:00,64.1,36.4,30.09,ENE,68,3.6,5.6,36,0.00,,,0.00,WUHU216HW,2013-04-22 22:16:00,
2013-04-22 18:21:00,64.1,36.4,30.09,NE,45,3.6,5.6,36,0.00,,,0.00,WUHU216HW,2013-04-22 22:21:00,
2013-04-22 18:26:00,63.9,36.3,30.08,ENE,68,4.0,6.7,36,0.00,,,0.00,WUHU216HW,2013-04-22 22:26:00,
2013-04-22 18:31:00,63.4,34.3,30.08,ENE,68,3.8,6.9,34,0.00,,,0.00,WUHU216HW,2013-04-22 22:31:00,
2013-04-22 18:36:00,63.4,35.7,30.08,NE,45,3.4,6.9,36,0.00,,,0.00,WUHU216HW,2013-04-22 22:36:00,
2013-04-22 18:41:00,63.2,35.6,30.08,East,90,3.4,6.3,36,0.00,,,0.00,WUHU216HW,2013-04-22 22:41:00,
2013-04-22 18:46:00,63.2,35.6,30.08,ENE,68,3.8,5.6,36,0.00,,,0.00,WUHU216HW,2013-04-22 22:46:00,
2013-04-22 18:51:00,63.2,35.6,30.08,East,90,3.1,5.6,36,0.00,,,0.00,WUHU216HW,2013-04-22 22:51:00,
2013-04-22 18:56:00,63.0,35.5,30.08,ENE,68,1.1,5.4,36,0.00,,,0.00,WUHU216HW,2013-04-22 22:56:00,
2013-04-22 19:01:00,63.2,36.3,30.08,NE,45,2.2,4.7,37,0.00,,,0.00,WUHU216HW,2013-04-22 23:01:00,
2013-04-22 19:06:00,63.2,36.3,30.08,NNE,23,1.8,3.1,37,0.00,,,0.00,WUHU216HW,2013-04-22 23:06:00,
2013-04-22 19:11:00,63.2,36.3,30.09,ESE,113,4.3,4.3,37,0.00,,,0.00,WUHU216HW,2013-04-22 23:11:00,
2013-04-22 19:16:00,62.6,35.1,30.09,ENE,68,4.0,4.7,36,0.00,,,0.00,WUHU216HW,2013-04-22 23:16:00,
2013-04-22 19:21:00,62.3,35.5,30.09,East,90,2.7,5.6,37,0.00,,,0.00,WUHU216HW,2013-04-22 23:21:00,
2013-04-22 19:26:00,61.9,35.2,30.08,ENE,68,2.0,5.6,37,0.00,,,0.00,WUHU216HW,2013-04-22 23:26:00,
2013-04-22 19:31:00,61.9,35.9,30.09,ENE,68,1.8,4.5,38,0.00,,,0.00,WUHU216HW,2013-04-22 23:31:00,
2013-04-22 19:36:00,61.6,35.6,30.09,NE,45,2.2,4.7,38,0.00,,,0.00,WUHU216HW,2013-04-22 23:36:00,
2013-04-22 19:41:00,61.2,35.3,30.09,ENE,68,2.2,4.7,38,0.00,,,0.00,WUHU216HW,2013-04-22 23:41:00,
2013-04-22 19:46:00,60.8,35.6,30.09,NE,45,0.7,2.5,39,0.00,,,0.00,WUHU216HW,2013-04-22 23:46:00,
2013-04-22 19:51:00,60.3,35.9,30.09,East,90,2.5,2.5,40,0.00,,,0.00,WUHU216HW,2013-04-22 23:51:00,
2013-04-22 19:56:00,59.9,35.6,30.09,NE,45,0.2,2.5,40,0.00,,,0.00,WUHU216HW,2013-04-22 23:56:00,
2013-04-22 20:01:00,59.4,35.6,30.09,ENE,68,0.2,2.5,41,0.00,,,0.00,WUHU216HW,2013-04-23 00:01:00,
2013-04-22 20:06:00,58.7,35.0,30.09,ENE,68,0.2,1.1,41,0.00,,,0.00,WUHU216HW,2013-04-23 00:06:00,
2013-04-22 20:11:00,58.0,35.5,30.09,ENE,68,0.0,0.9,43,0.00,,,0.00,WUHU216HW,2013-04-23 00:11:00,
2013-04-22 20:16:00,57.2,34.8,30.09,ENE,68,0.2,0.9,43,0.00,,,0.00,WUHU216HW,2013-04-23 00:16:00,
2013-04-22 20:21:00,56.5,34.7,30.09,ENE,68,0.9,1.1,44,0.00,,,0.00,WUHU216HW,2013-04-23 00:21:00,
2013-04-22 20:26:00,56.2,35.0,30.09,ENE,68,0.2,1.1,45,0.00,,,0.00,WUHU216HW,2013-04-23 00:26:00,
2013-04-22 20:31:00,55.6,35.0,30.09,ENE,68,0.2,1.8,46,0.00,,,0.00,WUHU216HW,2013-04-23 00:31:00,
2013-04-22 20:36:00,55.1,35.1,30.09,ENE,68,0.2,1.8,47,0.00,,,0.00,WUHU216HW,2013-04-23 00:36:00,
2013-04-22 20:41:00,54.7,35.3,30.10,ENE,68,0.4,1.3,48,0.00,,,0.00,WUHU216HW,2013-04-23 00:41:00,
2013-04-22 20:46:00,54.4,34.5,30.10,ENE,68,1.1,1.3,47,0.00,,,0.00,WUHU216HW,2013-04-23 00:46:00,
2013-04-22 20:51:00,54.0,34.7,30.10,ENE,68,0.0,1.1,48,0.00,,,0.00,WUHU216HW,2013-04-23 00:51:00,
2013-04-22 20:56:00,53.6,34.4,30.10,ENE,68,0.0,1.1,48,0.00,,,0.00,WUHU216HW,2013-04-23 00:56:00,
2013-04-22 21:01:00,53.3,34.6,30.10,ENE,68,0.0,0.4,49,0.00,,,0.00,WUHU216HW,2013-04-23 01:01:00,
2013-04-22 21:06:00,52.7,34.1,30.11,ENE,68,0.0,0.4,49,0.00,,,0.00,WUHU216HW,2013-04-23 01:06:00,
2013-04-22 21:11:00,52.2,34.2,30.11,ENE,68,0.2,0.4,50,0.00,,,0.00,WUHU216HW,2013-04-23 01:11:00,
2013-04-22 21:16:00,51.8,34.3,30.11,ENE,68,0.0,1.1,51,0.00,,,0.00,WUHU216HW,2013-04-23 01:16:00,
2013-04-22 21:21:00,51.5,34.4,30.11,ENE,68,0.0,1.1,52,0.00,,,0.00,WUHU216HW,2013-04-23 01:21:00,
2013-04-22 21:26:00,51.5,35.3,30.11,ENE,68,0.9,1.1,54,0.00,,,0.00,WUHU216HW,2013-04-23 01:26:00,
2013-04-22 21:31:00,51.5,35.3,30.11,ENE,68,0.2,1.8,54,0.00,,,0.00,WUHU216HW,2013-04-23 01:31:00,
2013-04-22 21:36:00,51.5,35.3,30.11,ENE,68,0.0,1.8,54,0.00,,,0.00,WUHU216HW,2013-04-23 01:36:00,
2013-04-22 21:41:00,51.1,34.6,30.11,ENE,68,0.0,0.7,53,0.00,,,0.00,WUHU216HW,2013-04-23 01:41:00,
2013-04-22 21:46:00,50.6,34.5,30.11,ENE,68,0.0,0.0,54,0.00,,,0.00,WUHU216HW,2013-04-23 01:46:00,
2013-04-22 21:51:00,50.0,34.0,30.12,ENE,68,0.0,0.0,54,0.00,,,0.00,WUHU216HW,2013-04-23 01:51:00,
2013-04-22 21:56:00,49.5,33.9,30.12,ENE,68,0.0,0.0,55,0.00,,,0.00,WUHU216HW,2013-04-23 01:56:00,
2013-04-22 22:01:00,49.1,34.1,30.12,ENE,68,0.2,0.2,56,0.00,,,0.00,WUHU216HW,2013-04-23 02:01:00,
2013-04-22 22:06:00,48.8,34.7,30.12,ENE,68,0.0,0.7,58,0.00,,,0.00,WUHU216HW,2013-04-23 02:06:00,
2013-04-22 22:11:00,48.6,34.5,30.12,ENE,68,0.2,0.7,58,0.00,,,0.00,WUHU216HW,2013-04-23 02:11:00,
2013-04-22 22:16:00,48.6,35.5,30.12,ENE,68,0.4,0.9,60,0.00,,,0.00,WUHU216HW,2013-04-23 02:16:00,
2013-04-22 22:21:00,48.6,34.9,30.12,ENE,68,0.0,0.9,59,0.00,,,0.00,WUHU216HW,2013-04-23 02:21:00,
2013-04-22 22:26:00,48.2,34.7,30.12,ENE,68,0.0,0.7,59,0.00,,,0.00,WUHU216HW,2013-04-23 02:26:00,
2013-04-22 22:31:00,47.9,34.3,30.12,ENE,68,0.0,0.0,59,0.00,,,0.00,WUHU216HW,2013-04-23 02:31:00,
2013-04-22 22:36:00,47.5,33.9,30.12,ENE,68,0.0,0.0,59,0.00,,,0.00,WUHU216HW,2013-04-23 02:36:00,
2013-04-22 22:41:00,47.2,34.0,30.12,ENE,68,0.0,0.0,60,0.00,,,0.00,WUHU216HW,2013-04-23 02:41:00,
2013-04-22 22:46:00,46.8,33.7,30.12,ENE,68,0.0,0.0,60,0.00,,,0.00,WUHU216HW,2013-04-23 02:46:00,
2013-04-22 22:51:00,46.6,33.8,30.12,ENE,68,0.0,0.0,61,0.00,,,0.00,WUHU216HW,2013-04-23 02:51:00,
2013-04-22 22:56:00,46.4,33.7,30.13,ENE,68,0.2,0.2,61,0.00,,,0.00,WUHU216HW,2013-04-23 02:56:00,
2013-04-22 23:01:00,46.3,33.9,30.13,ENE,68,0.0,0.4,62,0.00,,,0.00,WUHU216HW,2013-04-23 03:01:00,
2013-04-22 23:06:00,45.9,34.0,30.13,ENE,68,0.2,0.4,63,0.00,,,0.00,WUHU216HW,2013-04-23 03:06:00,
2013-04-22 23:11:00,45.5,33.7,30.13,ENE,68,0.0,0.4,63,0.00,,,0.00,WUHU216HW,2013-04-23 03:11:00,
2013-04-22 23:16:00,45.2,33.7,30.13,ENE,68,0.0,0.4,64,0.00,,,0.00,WUHU216HW,2013-04-23 03:16:00,
2013-04-22 23:21:00,45.0,35.1,30.12,ENE,68,0.0,0.4,68,0.00,,,0.00,WUHU216HW,2013-04-23 03:21:00,
2013-04-22 23:26:00,45.0,36.2,30.13,ENE,68,0.2,0.7,71,0.00,,,0.00,WUHU216HW,2013-04-23 03:26:00,
2013-04-22 23:31:00,45.2,37.0,30.12,ENE,68,0.0,0.9,73,0.00,,,0.00,WUHU216HW,2013-04-23 03:31:00,
2013-04-22 23:36:00,45.4,37.2,30.13,NE,45,0.0,0.9,73,0.00,,,0.00,WUHU216HW,2013-04-23 03:36:00,
2013-04-22 23:41:00,45.2,36.7,30.13,NE,45,0.0,0.4,72,0.00,,,0.00,WUHU216HW,2013-04-23 03:41:00,
2013-04-22 23:46:00,44.8,36.0,30.13,NE,45,0.0,0.2,71,0.00,,,0.00,WUHU216HW,2013-04-23 03:46:00,
2013-04-22 23:51:00,44.5,36.0,30.13,NE,45,0.0,0.0,72,0.00,,,0.00,WUHU216HW,2013-04-23 03:51:00,
2013-04-22 23:56:00,44.3,35.8,30.13,NE,45,0.0,0.4,72,0.00,,,0.00,WUHU216HW,2013-04-23 03:56:00,